Location: Pedimozza
(42.0500°N, 9.3500°E)
Time: 11:03:46
(UTC+00:00)

EO 1 Del DPAF - Pass Details

Date: 19 August 2019
Orbit: 516 x 522 km, 98.0° (Epoch: 23 September)

Event Time Altitude Azimuth Distance (km) Brightness Sun altitude
Rises 20:43:33 0° 12° (NNE) 2,652 7.3 -23.8°
Reaches altitude 10° 20:45:39 10° 12° (NNE) 1,758 6.3 -24.0°
Enters shadow 20:48:29 49° 10° (N) 678 3.9 -24.4°
